M I D A S
Marine Information and Data Acquisition System
Tripno 1829 of the Zeeleeuw from 2009-12-18 07:37:33 to 2009-12-18 15:35:12
Back to CruiseResearch ActivitiesStationsMapUnderway DataData graphs

EquipmentUnitsComments
TimeDGPSUTC
LatitudeDGPSDM.mWGS84
LongitudeDGPSDM.mWGS84
SpeedMeteo Stationm/sRelative wind speed
DirectionMeteo StationdegRelative wind direction
TemperatureMeteo Stationdeg CelciusAir temperature
PressureMeteo StationPaAtmospheric pressure
HumidityMeteo Station%Relative humidity
Missing or incorrect values are displayed as -999
Metereological data collected by the RV Zeeleeuw from 2009-12-18 07:40:09 to 2009-12-18 15:38:23
Time Latitude Longitude Speed Direction Temperature Pressure Humidity
2009-12-18 07:41 51°13.679 2°55.881 0.1 332 -2.7 101170 35
2009-12-18 07:42 51°13.708 2°55.784 0.1 248 -2.7 101170 35
2009-12-18 07:43 51°13.755 2°55.7 2.1 250 -2.7 101170 32
2009-12-18 07:44 51°13.834 2°55.643 2.5 54 -2.7 101180 35
2009-12-18 07:45 51°13.903 2°55.624 1.6 34 -2.7 101190 32
2009-12-18 07:46 51°13.941 2°55.628 5.2 36 -2.7 101180 34
2009-12-18 07:47 51°13.946 2°55.616 0.5 32 -2.7 101170 33
2009-12-18 07:48 51°13.968 2°55.562 2.3 25 -2.7 101170 33
2009-12-18 07:49 51°14.059 2°55.477 4 356 -2.7 101170 33
2009-12-18 07:50 51°14.197 2°55.356 3.9 360 -2.7 101160 33
2009-12-18 07:51 51°14.304 2°55.181 4.4 5 -2.7 101170 33
2009-12-18 07:52 51°14.409 2°54.954 5.4 6 -2.5 101170 34
2009-12-18 07:53 51°14.566 2°54.852 10.1 357 -2.3 101150 35
2009-12-18 07:54 51°14.73 2°54.802 10.7 354 -2.1 101150 36
2009-12-18 07:55 51°14.9 2°54.766 10.7 360 -1.9 101140 36
2009-12-18 07:56 51°15.068 2°54.735 11.7 360 -1.7 101140 36
2009-12-18 07:57 51°15.233 2°54.674 9.4 5 -1.6 101140 36
2009-12-18 07:58 51°15.398 2°54.578 9.5 6 -1.5 101140 37
2009-12-18 07:59 51°15.558 2°54.489 12.4 3 -1.4 101150 35
2009-12-18 08:00 51°15.723 2°54.42 11.9 3 -1.3 101140 35
2009-12-18 08:01 51°15.891 2°54.355 11.5 1 -1.1 101160 35
2009-12-18 08:02 51°16.058 2°54.293 10.8 5 -1 101150 37
2009-12-18 08:03 51°16.179 2°54.241 11.6 2 -0.9 101140 36
2009-12-18 08:04 51°16.222 2°54.234 11.2 350 -0.9 101170 36
2009-12-18 08:05 51°16.226 2°54.247 9.5 333 -0.8 101180 37
2009-12-18 08:06 51°16.211 2°54.236 8.1 332 -0.8 101190 34
2009-12-18 08:07 51°16.192 2°54.207 7.8 331 -0.8 101200 35
2009-12-18 08:08 51°16.171 2°54.165 10.5 321 -0.7 101190 37
2009-12-18 08:09 51°16.151 2°54.112 8.5 29 -0.7 101190 34
2009-12-18 08:10 51°16.131 2°54.063 8.7 254 -0.8 101190 33
2009-12-18 08:11 51°16.084 2°54.009 7.5 34 -0.6 101190 37
2009-12-18 08:12 51°16.053 2°53.898 6.9 39 -0.8 101200 33
2009-12-18 08:13 51°16.093 2°53.793 10.4 12 -0.8 101190 35
2009-12-18 08:14 51°16.19 2°53.632 7.6 10 -0.7 101190 35
2009-12-18 08:15 51°16.322 2°53.456 11.4 10 -0.7 101190 36
2009-12-18 08:16 51°16.461 2°53.284 9.4 9 -0.6 101200 35
2009-12-18 08:17 51°16.599 2°53.103 9.1 12 -0.6 101190 32
2009-12-18 08:18 51°16.735 2°52.926 8.3 9 -0.5 101190 35
2009-12-18 08:19 51°16.869 2°52.754 10.1 12 -0.4 101200 35
2009-12-18 08:20 51°17.006 2°52.591 13.5 12 -0.4 101210 34
2009-12-18 08:21 51°17.14 2°52.446 10.3 9 -0.3 101210 35
2009-12-18 08:22 51°17.278 2°52.299 9.8 12 -0.3 101190 34
2009-12-18 08:23 51°17.409 2°52.154 11.8 11 -0.2 101190 35
2009-12-18 08:24 51°17.549 2°52.006 11.2 10 -0.2 101210 33
2009-12-18 08:25 51°17.687 2°51.856 8.1 16 -0.2 101210 33
2009-12-18 08:26 51°17.826 2°51.706 10.4 11 -0.1 101210 34
2009-12-18 08:27 51°17.968 2°51.555 11.7 17 -0.1 101220 34
2009-12-18 08:28 51°18.108 2°51.402 10.9 13 -999 101220 35
2009-12-18 08:29 51°18.249 2°51.25 8.6 9 -0.1 101210 32
2009-12-18 08:30 51°18.357 2°51.12 10.2 18 0.1 101220 35
2009-12-18 08:31 51°18.453 2°51.002 9.4 14 -999 101220 35
2009-12-18 08:32 51°18.51 2°50.981 11 342 -999 101200 34
2009-12-18 08:33 51°18.498 2°51.013 12.4 34 -999 101240 34
2009-12-18 08:34 51°18.463 2°50.991 10.3 35 0.1 101230 36
2009-12-18 08:35 51°18.433 2°50.952 9.7 249 -999 101240 33
2009-12-18 08:36 51°18.406 2°50.907 11.7 254 0.1 101240 34
2009-12-18 08:37 51°18.381 2°50.859 9 261 0.2 101230 36
2009-12-18 08:38 51°18.341 2°50.81 9.5 270 -999 101230 32
2009-12-18 08:39 51°18.291 2°50.703 6.5 42 -999 101250 33
2009-12-18 08:40 51°18.307 2°50.483 4.7 38 -0.1 101250 32
2009-12-18 08:41 51°18.33 2°50.179 4.3 44 -999 101260 34
2009-12-18 08:42 51°18.34 2°49.862 2.5 35 0.1 101270 34
2009-12-18 08:43 51°18.341 2°49.544 7.2 32 0.1 101270 33
2009-12-18 08:44 51°18.347 2°49.231 4.1 43 0.2 101250 35
2009-12-18 08:45 51°18.353 2°48.919 3.2 36 0.2 101270 34
2009-12-18 08:46 51°18.374 2°48.553 5.7 30 0.3 101260 32
2009-12-18 08:47 51°18.407 2°48.245 7.6 23 0.2 101260 33
2009-12-18 08:48 51°18.439 2°47.939 5.4 30 0.2 101260 33
2009-12-18 08:49 51°18.466 2°47.632 4.9 37 0.1 101260 32
2009-12-18 08:50 51°18.453 2°47.312 4.2 27 0.1 101270 32
2009-12-18 08:51 51°18.437 2°46.99 3.4 17 -999 101280 29
2009-12-18 08:52 51°18.437 2°46.668 3.9 33 -0.1 101280 31
2009-12-18 08:53 51°18.447 2°46.346 3.8 40 -999 101280 29
2009-12-18 08:54 51°18.456 2°46.022 4.3 45 0.1 101270 30
2009-12-18 08:55 51°18.468 2°45.697 6.5 35 0.1 101280 32
2009-12-18 08:56 51°18.48 2°45.372 4.6 36 0.2 101280 34
2009-12-18 08:57 51°18.49 2°45.048 5.6 41 0.2 101280 33
2009-12-18 08:58 51°18.506 2°44.729 4.6 43 0.2 101270 32
2009-12-18 08:59 51°18.518 2°44.413 4.7 34 0.2 101280 33
2009-12-18 09:00 51°18.538 2°44.101 4.1 44 0.1 101280 31
2009-12-18 09:01 51°18.557 2°43.789 3.2 36 0.2 101290 34
2009-12-18 09:02 51°18.567 2°43.473 3.7 19 0.3 101280 32
2009-12-18 09:03 51°18.582 2°43.157 5.3 34 0.4 101270 34
2009-12-18 09:04 51°18.593 2°42.837 6.2 37 0.4 101290 34
2009-12-18 09:05 51°18.606 2°42.514 3.5 36 0.3 101280 30
2009-12-18 09:06 51°18.618 2°42.192 3.2 25 0.4 101290 30
2009-12-18 09:07 51°18.627 2°41.874 4 30 0.4 101270 32
2009-12-18 09:08 51°18.636 2°41.554 3.5 38 0.5 101290 34
2009-12-18 09:09 51°18.647 2°41.235 6.8 42 0.6 101280 32
2009-12-18 09:10 51°18.657 2°40.913 2.8 27 0.4 101270 30
2009-12-18 09:11 51°18.668 2°40.594 7.3 27 0.5 101280 32
2009-12-18 09:12 51°18.641 2°40.285 4.9 18 0.5 101290 31
2009-12-18 09:13 51°18.478 2°40.1 4.5 266 0.6 101280 30
2009-12-18 09:14 51°18.309 2°39.905 4.7 23 0.5 101280 31
2009-12-18 09:15 51°18.162 2°39.677 3.6 26 0.5 101290 31
2009-12-18 09:16 51°18.032 2°39.423 4 23 0.5 101290 31
2009-12-18 09:17 51°17.906 2°39.158 3.5 24 0.5 101290 30
2009-12-18 09:18 51°17.775 2°38.892 2.9 25 0.4 101290 29
2009-12-18 09:19 51°17.642 2°38.632 4.5 19 0.5 101290 32
2009-12-18 09:20 51°17.508 2°38.373 2.3 29 0.5 101280 32
2009-12-18 09:21 51°17.372 2°38.114 1.1 264 0.4 101300 32
2009-12-18 09:22 51°17.238 2°37.855 1.4 269 0.6 101290 35
2009-12-18 09:23 51°17.08 2°37.63 3.9 267 0.7 101280 31
2009-12-18 09:24 51°16.907 2°37.427 5.3 261 0.7 101280 32
2009-12-18 09:25 51°16.737 2°37.231 4.4 266 0.6 101290 30
2009-12-18 09:26 51°16.607 2°37.07 5.6 20 0.5 101290 27
2009-12-18 09:27 51°16.524 2°36.982 8.2 259 0.5 101280 30
2009-12-18 09:28 51°16.492 2°36.932 6 266 0.5 101270 32
2009-12-18 09:29 51°16.471 2°36.872 6.5 263 0.7 101270 31
2009-12-18 09:30 51°16.446 2°36.812 6.1 260 0.5 101260 28
2009-12-18 09:31 51°16.419 2°36.752 7.7 261 0.6 101260 32
2009-12-18 09:32 51°16.393 2°36.695 8.4 253 0.6 101270 32
2009-12-18 09:33 51°16.367 2°36.637 10.4 255 0.6 101270 33
2009-12-18 09:34 51°16.339 2°36.579 8.4 255 0.7 101260 31
2009-12-18 09:35 51°16.313 2°36.518 11.1 258 0.7 101260 31
2009-12-18 09:36 51°16.287 2°36.458 8 257 0.6 101280 30
2009-12-18 09:37 51°16.241 2°36.406 8.7 261 0.6 101280 32
2009-12-18 09:38 51°16.121 2°36.352 8 253 0.6 101280 31
2009-12-18 09:39 51°15.94 2°36.304 8 18 0.6 101320 32
2009-12-18 09:40 51°15.741 2°36.259 11.8 249 0.5 101280 31
2009-12-18 09:41 51°15.54 2°36.221 8.3 18 0.6 101270 32
2009-12-18 09:42 51°15.347 2°36.224 11 247 0.6 101250 32
2009-12-18 09:43 51°15.156 2°36.249 12.7 21 0.6 101260 32
2009-12-18 09:44 51°14.968 2°36.294 10.4 21 0.6 101260 32
2009-12-18 09:45 51°14.787 2°36.349 10.5 245 0.6 101260 31
2009-12-18 09:46 51°14.611 2°36.411 10.5 247 0.5 101270 32
2009-12-18 09:47 51°14.44 2°36.505 13.2 24 0.5 101250 32
2009-12-18 09:48 51°14.294 2°36.65 14.7 21 0.5 101220 31
2009-12-18 09:49 51°14.154 2°36.815 12.9 21 0.5 101240 31
2009-12-18 09:50 51°14.013 2°36.983 14.3 24 0.5 101230 30
2009-12-18 09:51 51°13.872 2°37.149 14.5 26 0.5 101230 32
2009-12-18 09:52 51°13.733 2°37.318 14.5 22 0.4 101250 31
2009-12-18 09:53 51°13.596 2°37.486 15.1 20 0.5 101230 32
2009-12-18 09:54 51°13.455 2°37.656 14.3 22 0.6 101240 31
2009-12-18 09:55 51°13.319 2°37.827 13.6 21 0.5 101230 31
2009-12-18 09:56 51°13.166 2°37.977 11.2 23 0.5 101220 32
2009-12-18 09:57 51°12.977 2°37.976 5.2 259 0.6 101250 33
2009-12-18 09:58 51°12.79 2°37.879 7.2 255 0.6 101270 33
2009-12-18 09:59 51°12.616 2°37.727 5 264 0.6 101280 31
2009-12-18 10:00 51°12.44 2°37.572 4.3 266 0.6 101280 32
2009-12-18 10:01 51°12.267 2°37.415 3.1 262 0.5 101280 34
2009-12-18 10:02 51°12.093 2°37.258 4.4 262 0.4 101280 31
2009-12-18 10:03 51°11.921 2°37.102 5.6 261 0.4 101280 32
2009-12-18 10:04 51°11.747 2°36.947 5.3 261 0.3 101270 32
2009-12-18 10:05 51°11.574 2°36.787 3.4 265 0.4 101280 30
2009-12-18 10:06 51°11.401 2°36.631 4.1 266 0.4 101280 30
2009-12-18 10:07 51°11.229 2°36.47 3.5 267 0.4 101280 32
2009-12-18 10:08 51°11.054 2°36.317 7.3 257 0.5 101290 31
2009-12-18 10:09 51°10.881 2°36.16 5.1 258 0.5 101280 33
2009-12-18 10:10 51°10.711 2°36.005 3.6 265 0.5 101280 31
2009-12-18 10:11 51°10.538 2°35.847 6.7 261 0.5 101280 31
2009-12-18 10:12 51°10.364 2°35.69 6.4 254 0.6 101280 34
2009-12-18 10:13 51°10.196 2°35.539 7.3 257 0.6 101280 31
2009-12-18 10:14 51°10.019 2°35.399 8.7 255 0.5 101280 31
2009-12-18 10:15 51°9.838 2°35.419 10.3 18 0.5 101260 30
2009-12-18 10:16 51°9.676 2°35.535 13.2 25 0.5 101240 31
2009-12-18 10:17 51°9.537 2°35.705 15.2 22 0.4 101240 30
2009-12-18 10:18 51°9.472 2°35.933 15.7 325 0.4 101260 31
2009-12-18 10:19 51°9.512 2°36.169 16.6 336 0.3 101270 30
2009-12-18 10:20 51°9.576 2°36.398 14.5 335 0.2 101260 30
2009-12-18 10:21 51°9.645 2°36.636 16.1 335 0.3 101270 32
2009-12-18 10:22 51°9.712 2°36.872 15.2 335 0.2 101270 30
2009-12-18 10:23 51°9.776 2°37.105 12.8 331 0.1 101260 31
2009-12-18 10:24 51°9.841 2°37.34 13.6 338 0.1 101260 32
2009-12-18 10:25 51°9.908 2°37.575 15.9 336 -999 101270 31
2009-12-18 10:26 51°9.974 2°37.809 15.4 331 0.1 101270 32
2009-12-18 10:27 51°10.04 2°38.049 14.2 337 0.1 101280 32
2009-12-18 10:28 51°10.109 2°38.291 12.7 335 0.1 101270 33
2009-12-18 10:29 51°10.175 2°38.52 15.4 337 0.1 101250 33
2009-12-18 10:30 51°10.243 2°38.76 14.7 333 0.1 101260 32
2009-12-18 10:31 51°10.308 2°38.997 13.7 332 0.1 101260 33
2009-12-18 10:32 51°10.375 2°39.243 15.7 333 0.1 101270 32
2009-12-18 10:33 51°10.448 2°39.476 15.9 337 0.1 101260 33
2009-12-18 10:34 51°10.529 2°39.703 13.2 333 -999 101250 33
2009-12-18 10:35 51°10.611 2°39.933 12.9 336 -0.1 101270 33
2009-12-18 10:36 51°10.693 2°40.162 14.7 337 -999 101260 33
2009-12-18 10:37 51°10.776 2°40.392 12.9 334 0.1 101270 33
2009-12-18 10:38 51°10.854 2°40.621 12.7 332 -999 101260 32
2009-12-18 10:39 51°10.934 2°40.857 13.1 335 0.1 101250 33
2009-12-18 10:40 51°11.016 2°41.092 15.8 334 0.2 101260 34
2009-12-18 10:41 51°11.099 2°41.33 15 337 0.2 101260 33
2009-12-18 10:42 51°11.202 2°41.539 14.6 341 0.3 101250 33
2009-12-18 10:43 51°11.291 2°41.705 11.5 336 0.3 101260 34
2009-12-18 10:44 51°11.305 2°41.794 10.7 23 0.3 101270 33
2009-12-18 10:45 51°11.269 2°41.823 9.9 20 0.4 101250 34
2009-12-18 10:46 51°11.25 2°41.804 8.9 261 0.5 101260 31
2009-12-18 10:47 51°11.235 2°41.78 5.5 261 0.5 101270 34
2009-12-18 10:48 51°11.219 2°41.76 5.6 260 0.6 101280 35
2009-12-18 10:49 51°11.202 2°41.741 8.5 259 0.6 101270 34
2009-12-18 10:50 51°11.18 2°41.729 5.9 248 0.6 101270 33
2009-12-18 10:51 51°11.154 2°41.764 7.2 320 0.6 101250 34
2009-12-18 10:52 51°11.177 2°41.88 13 333 0.6 101260 33
2009-12-18 10:53 51°11.237 2°42.11 14 330 0.5 101270 33
2009-12-18 10:54 51°11.304 2°42.361 15.4 334 0.5 101240 33
2009-12-18 10:55 51°11.374 2°42.612 14.8 334 0.6 101260 34
2009-12-18 10:56 51°11.42 2°42.878 14 328 0.6 101240 33
2009-12-18 10:57 51°11.45 2°43.152 12.9 330 0.6 101230 33
2009-12-18 10:58 51°11.473 2°43.425 14.5 326 0.6 101220 33
2009-12-18 10:59 51°11.502 2°43.703 13.5 329 0.5 101220 33
2009-12-18 11:00 51°11.532 2°43.986 13.6 325 0.5 101230 33
2009-12-18 11:01 51°11.562 2°44.265 15.3 328 0.6 101240 33
2009-12-18 11:02 51°11.596 2°44.536 14.5 322 0.5 101240 31
2009-12-18 11:03 51°11.631 2°44.819 13.6 324 0.5 101240 34
2009-12-18 11:04 51°11.664 2°45.097 14.1 328 0.4 101220 33
2009-12-18 11:05 51°11.696 2°45.37 13.5 329 0.4 101250 32
2009-12-18 11:06 51°11.728 2°45.648 13.3 328 0.4 101240 33
2009-12-18 11:07 51°11.76 2°45.933 11.8 330 0.4 101230 33
2009-12-18 11:08 51°11.795 2°46.213 14.1 327 0.3 101230 34
2009-12-18 11:09 51°11.829 2°46.488 12 328 0.3 101240 33
2009-12-18 11:10 51°11.863 2°46.755 13.1 331 0.3 101230 32
2009-12-18 11:11 51°11.898 2°47.029 12.1 328 0.3 101240 33
2009-12-18 11:12 51°11.943 2°47.301 12.9 335 0.3 101240 32
2009-12-18 11:13 51°12.033 2°47.535 12.5 333 0.2 101230 33
2009-12-18 11:14 51°12.126 2°47.767 14.7 333 0.2 101240 33
2009-12-18 11:15 51°12.208 2°48.013 11.6 333 0.2 101250 31
2009-12-18 11:16 51°12.28 2°48.263 11.2 334 0.2 101250 33
2009-12-18 11:17 51°12.354 2°48.518 10.7 330 0.2 101230 33
2009-12-18 11:18 51°12.439 2°48.766 14 337 0.2 101230 32
2009-12-18 11:19 51°12.532 2°49.012 11.9 336 0.2 101240 32
2009-12-18 11:20 51°12.624 2°49.252 10.1 333 0.2 101240 33
2009-12-18 11:21 51°12.713 2°49.489 11.7 336 0.2 101240 32
2009-12-18 11:22 51°12.804 2°49.733 10.6 331 0.2 101210 33
2009-12-18 11:23 51°12.897 2°49.979 12.2 334 0.2 101240 33
2009-12-18 11:24 51°12.987 2°50.227 12.4 333 0.3 101240 34
2009-12-18 11:25 51°13.073 2°50.482 11.7 332 0.3 101220 34
2009-12-18 11:26 51°13.157 2°50.74 11.8 335 0.3 101220 32
2009-12-18 11:27 51°13.238 2°50.995 12.6 334 0.2 101210 32
2009-12-18 11:28 51°13.319 2°51.253 13.8 337 0.2 101220 34
2009-12-18 11:29 51°13.402 2°51.511 11.7 333 0.1 101200 33
2009-12-18 11:30 51°13.498 2°51.761 9.9 331 0.1 101210 33
2009-12-18 11:31 51°13.596 2°52 11.1 334 0.1 101200 34
2009-12-18 11:32 51°13.696 2°52.244 10.8 334 -999 101220 34
2009-12-18 11:33 51°13.795 2°52.487 11 337 -0.1 101210 32
2009-12-18 11:34 51°13.891 2°52.729 11.3 335 -0.1 101200 32
2009-12-18 11:35 51°13.996 2°52.968 9 338 -0.1 101210 34
2009-12-18 11:36 51°14.104 2°53.203 10.6 334 -0.1 101200 35
2009-12-18 11:37 51°14.211 2°53.445 9.1 338 -0.1 101220 34
2009-12-18 11:38 51°14.316 2°53.686 12 340 -0.1 101200 34
2009-12-18 11:39 51°14.423 2°53.928 9.1 340 -0.1 101220 35
2009-12-18 11:40 51°14.531 2°54.178 6.8 337 -999 101200 34
2009-12-18 11:41 51°14.638 2°54.422 8.2 340 -999 101210 34
2009-12-18 11:42 51°14.751 2°54.664 8 339 -999 101210 34
2009-12-18 11:43 51°14.868 2°54.911 8.4 340 -999 101210 34
2009-12-18 11:44 51°14.985 2°55.15 7.2 342 0.1 101190 34
2009-12-18 11:45 51°15.097 2°55.388 10 334 0.1 101200 36
2009-12-18 11:46 51°15.211 2°55.638 10.4 336 0.2 101190 36
2009-12-18 11:47 51°15.319 2°55.878 9 333 0.3 101200 35
2009-12-18 11:48 51°15.432 2°56.115 9.5 334 0.3 101210 34
2009-12-18 11:49 51°15.542 2°56.354 12.1 333 0.3 101200 35
2009-12-18 11:50 51°15.656 2°56.6 13.1 331 0.3 101190 34
2009-12-18 11:51 51°15.765 2°56.838 9.8 330 0.3 101190 36
2009-12-18 11:52 51°15.879 2°57.083 9.3 331 0.3 101190 34
2009-12-18 11:53 51°15.992 2°57.326 13 331 0.4 101190 34
2009-12-18 11:54 51°16.104 2°57.574 14 331 0.5 101180 35
2009-12-18 11:55 51°16.216 2°57.826 12 329 0.4 101180 33
2009-12-18 11:56 51°16.332 2°58.077 12.8 330 0.5 101180 34
2009-12-18 11:57 51°16.449 2°58.326 13.2 330 0.5 101180 35
2009-12-18 11:58 51°16.566 2°58.578 13.5 331 0.6 101180 34
2009-12-18 11:59 51°16.681 2°58.829 12.6 332 0.5 101180 34
2009-12-18 12:00 51°16.797 2°59.078 10.5 332 0.6 101170 35
2009-12-18 12:01 51°16.913 2°59.324 12.2 329 0.6 101190 34
2009-12-18 12:02 51°17.026 2°59.571 12.4 329 0.6 101180 35
2009-12-18 12:03 51°17.14 2°59.823 13.4 329 0.7 101160 35
2009-12-18 12:04 51°17.258 3°0.082 12.1 327 0.7 101170 35
2009-12-18 12:05 51°17.374 3°0.337 13 329 0.7 101150 35
2009-12-18 12:06 51°17.486 3°0.587 11.1 329 0.7 101170 34
2009-12-18 12:07 51°17.605 3°0.849 9.9 328 0.7 101150 35
2009-12-18 12:08 51°17.72 3°1.102 10.4 331 0.7 101160 35
2009-12-18 12:09 51°17.84 3°1.366 10.2 325 0.7 101160 34
2009-12-18 12:10 51°17.954 3°1.62 11.8 326 0.8 101150 34
2009-12-18 12:11 51°18.07 3°1.879 12.2 328 0.8 101150 35
2009-12-18 12:12 51°18.189 3°2.136 9.8 327 0.9 101160 36
2009-12-18 12:13 51°18.308 3°2.4 14 328 0.9 101150 36
2009-12-18 12:14 51°18.428 3°2.661 14.2 326 0.9 101150 34
2009-12-18 12:15 51°18.546 3°2.919 15.4 329 1 101150 34
2009-12-18 12:16 51°18.669 3°3.187 13.3 327 0.9 101140 34
2009-12-18 12:17 51°18.789 3°3.447 15.3 330 0.9 101150 33
2009-12-18 12:18 51°18.912 3°3.714 15.4 328 0.8 101140 33
2009-12-18 12:19 51°19.031 3°3.977 15.2 330 0.9 101150 34
2009-12-18 12:20 51°19.153 3°4.243 13.8 328 0.9 101150 34
2009-12-18 12:21 51°19.269 3°4.506 16.1 331 0.9 101140 33
2009-12-18 12:22 51°19.391 3°4.78 15.1 328 0.9 101130 32
2009-12-18 12:23 51°19.511 3°5.044 15.8 330 0.9 101150 34
2009-12-18 12:24 51°19.638 3°5.299 14.2 333 0.8 101150 33
2009-12-18 12:25 51°19.791 3°5.518 15.1 339 0.9 101150 34
2009-12-18 12:26 51°19.946 3°5.731 14.6 336 0.9 101130 33
2009-12-18 12:27 51°20.1 3°5.95 13.9 334 1 101150 34
2009-12-18 12:28 51°20.254 3°6.168 14.7 333 1.1 101150 35
2009-12-18 12:29 51°20.402 3°6.391 13.9 333 1 101150 33
2009-12-18 12:30 51°20.551 3°6.611 14.4 337 1 101140 32
2009-12-18 12:31 51°20.704 3°6.83 14.2 335 0.9 101150 32
2009-12-18 12:32 51°20.853 3°7.046 13 335 0.9 101140 32
2009-12-18 12:33 51°21.006 3°7.272 16.5 334 1 101140 34
2009-12-18 12:34 51°21.137 3°7.518 13.8 330 0.9 101150 33
2009-12-18 12:35 51°21.264 3°7.784 14.8 332 0.9 101140 33
2009-12-18 12:36 51°21.396 3°8.055 13.6 334 0.9 101140 34
2009-12-18 12:37 51°21.525 3°8.323 13.6 335 1 101150 34
2009-12-18 12:38 51°21.656 3°8.594 13 336 1 101150 32
2009-12-18 12:39 51°21.786 3°8.861 15.3 335 0.9 101150 34
2009-12-18 12:40 51°21.92 3°9.138 13.9 335 1 101150 34
2009-12-18 12:41 51°22.049 3°9.412 12.3 336 0.9 101150 33
2009-12-18 12:42 51°22.182 3°9.699 10.4 335 0.9 101150 34
2009-12-18 12:43 51°22.287 3°10.008 13.7 328 0.8 101160 33
2009-12-18 12:44 51°22.373 3°10.342 12.6 330 1 101170 34
2009-12-18 12:45 51°22.437 3°10.687 12.9 325 0.9 101160 34
2009-12-18 12:46 51°22.484 3°11.037 14.2 325 0.9 101140 34
2009-12-18 12:47 51°22.516 3°11.396 13.1 323 0.9 101150 34
2009-12-18 12:48 51°22.538 3°11.757 12.8 326 0.9 101140 34
2009-12-18 12:49 51°22.559 3°12.127 13.5 324 1 101160 34
2009-12-18 12:50 51°22.574 3°12.486 14.6 323 0.9 101150 34
2009-12-18 12:51 51°22.586 3°12.834 12 325 0.9 101160 33
2009-12-18 12:53 51°22.593 3°13.171 8.2 321 0.9 101160 34
2009-12-18 12:54 51°22.594 3°13.254 8.4 239 0.9 101170 34
2009-12-18 12:55 51°22.608 3°13.292 7.1 259 0.9 101160 34
2009-12-18 12:56 51°22.617 3°13.342 6.3 262 0.9 101170 34
2009-12-18 12:57 51°22.623 3°13.402 5.2 263 0.9 101170 33
2009-12-18 12:58 51°22.625 3°13.464 7.3 266 0.8 101170 33
2009-12-18 12:59 51°22.602 3°13.547 8.9 238 0.8 101170 33
2009-12-18 13:00 51°22.603 3°13.71 7.4 344 0.8 101170 33
2009-12-18 13:01 51°22.684 3°13.785 5.7 5 0.7 101170 33
2009-12-18 13:02 51°22.836 3°13.776 7.3 5 0.6 101150 33
2009-12-18 13:03 51°22.99 3°13.691 8.7 11 0.7 101160 34
2009-12-18 13:04 51°23.128 3°13.565 4.7 6 0.7 101160 34
2009-12-18 13:05 51°23.276 3°13.455 8.2 8 0.6 101170 33
2009-12-18 13:06 51°23.432 3°13.355 8.5 6 0.6 101160 36
2009-12-18 13:07 51°23.59 3°13.257 6.5 3 0.5 101160 34
2009-12-18 13:08 51°23.747 3°13.159 5.7 -999 0.7 101150 35
2009-12-18 13:09 51°23.903 3°13.059 5.6 2 0.8 101140 34
2009-12-18 13:10 51°24.061 3°12.962 7.2 360 0.7 101160 34
2009-12-18 13:11 51°24.219 3°12.862 6.7 3 0.7 101150 33
2009-12-18 13:12 51°24.375 3°12.759 6.9 6 0.8 101160 32
2009-12-18 13:13 51°24.523 3°12.634 7.8 3 0.8 101150 30
2009-12-18 13:14 51°24.66 3°12.483 5.4 -999 0.8 101150 31
2009-12-18 13:15 51°24.796 3°12.322 6.4 7 0.9 101150 32
2009-12-18 13:16 51°24.931 3°12.156 7 9 0.9 101150 32
2009-12-18 13:17 51°25.063 3°11.988 4.7 14 0.8 101160 31
2009-12-18 13:18 51°25.196 3°11.816 4.1 4 0.9 101160 32
2009-12-18 13:19 51°25.326 3°11.641 7.7 10 1 101160 34
2009-12-18 13:20 51°25.458 3°11.467 5.1 2 1 101160 33
2009-12-18 13:21 51°25.587 3°11.292 5.8 8 1 101160 33
2009-12-18 13:22 51°25.717 3°11.117 5.1 15 1 101160 32
2009-12-18 13:23 51°25.846 3°10.943 4.5 4 1 101170 33
2009-12-18 13:24 51°25.963 3°10.747 6.7 12 1 101170 35
2009-12-18 13:25 51°26.017 3°10.498 3.6 7 1.1 101170 33
2009-12-18 13:26 51°26.047 3°10.235 3.6 12 1.1 101170 33
2009-12-18 13:27 51°26.116 3°9.992 3.6 17 1.2 101170 33
2009-12-18 13:28 51°26.202 3°9.757 3.5 15 1.1 101170 35
2009-12-18 13:29 51°26.291 3°9.526 6.4 12 1.1 101160 33
2009-12-18 13:30 51°26.377 3°9.291 4.3 12 1.2 101160 33
2009-12-18 13:31 51°26.462 3°9.053 4.5 12 1.1 101160 33
2009-12-18 13:32 51°26.537 3°8.807 4.7 11 1.1 101150 34
2009-12-18 13:33 51°26.538 3°8.547 2.2 31 1.2 101170 34
2009-12-18 13:34 51°26.49 3°8.388 3.1 36 1.3 101180 32
2009-12-18 13:35 51°26.463 3°8.278 1.6 29 1.3 101170 34
2009-12-18 13:36 51°26.417 3°8.263 3.7 257 1.4 101150 31
2009-12-18 13:37 51°26.407 3°8.288 6.5 254 1.5 101150 33
2009-12-18 13:38 51°26.408 3°8.305 5.9 249 1.6 101150 32
2009-12-18 13:39 51°26.409 3°8.317 5.6 254 1.7 101150 34
2009-12-18 13:40 51°26.41 3°8.328 4.5 260 1.7 101160 32
2009-12-18 13:41 51°26.402 3°8.343 5.4 267 1.8 101150 34
2009-12-18 13:42 51°26.346 3°8.316 3.3 268 1.6 101160 32
2009-12-18 13:43 51°26.251 3°8.22 3.4 267 1.5 101170 34
2009-12-18 13:44 51°26.14 3°8.089 3.9 266 1.4 101160 32
2009-12-18 13:45 51°26.011 3°7.941 3.2 41 1.4 101170 32
2009-12-18 13:46 51°25.887 3°7.793 2.5 270 1.5 101170 33
2009-12-18 13:47 51°25.758 3°7.647 2.5 267 1.3 101170 33
2009-12-18 13:48 51°25.628 3°7.498 1.2 266 1.4 101170 34
2009-12-18 13:49 51°25.501 3°7.353 0.8 33 1.3 101180 33
2009-12-18 13:50 51°25.374 3°7.198 0.1 260 1.3 101170 32
2009-12-18 13:51 51°25.253 3°7.039 0.1 33 1.3 101160 33
2009-12-18 13:52 51°25.125 3°6.885 0.1 245 1.3 101160 33
2009-12-18 13:53 51°24.994 3°6.727 2.8 34 1.4 101160 33
2009-12-18 13:54 51°24.868 3°6.578 2.1 264 1.4 101170 33
2009-12-18 13:55 51°24.737 3°6.426 0.2 36 1.5 101170 33
2009-12-18 13:56 51°24.617 3°6.267 0.1 260 1.5 101170 32
2009-12-18 13:57 51°24.506 3°6.082 0.2 38 1.6 101180 34
2009-12-18 13:58 51°24.399 3°5.898 0.9 257 1.6 101170 34
2009-12-18 13:59 51°24.285 3°5.705 0.2 264 1.6 101180 34
2009-12-18 14:00 51°24.151 3°5.563 2.2 260 1.6 101170 33
2009-12-18 14:01 51°23.985 3°5.495 7.1 248 1.6 101170 33
2009-12-18 14:02 51°23.807 3°5.504 4.7 245 1.6 101160 33
2009-12-18 14:03 51°23.635 3°5.52 7 249 1.7 101160 33
2009-12-18 14:04 51°23.474 3°5.473 4.1 254 1.7 101150 35
2009-12-18 14:05 51°23.381 3°5.282 -999 330 1.7 101170 33
2009-12-18 14:06 51°23.328 3°5.042 0.1 358 1.8 101160 34
2009-12-18 14:07 51°23.265 3°4.802 0.4 6 1.8 101170 34
2009-12-18 14:08 51°23.193 3°4.57 -999 2 1.7 101170 33
2009-12-18 14:09 51°23.122 3°4.338 -999 38 1.6 101170 33
2009-12-18 14:10 51°23.048 3°4.106 -999 246 1.5 101170 33
2009-12-18 14:11 51°22.977 3°3.87 -999 26 1.4 101170 33
2009-12-18 14:12 51°22.911 3°3.632 -999 17 1.4 101160 33
2009-12-18 14:13 51°22.842 3°3.402 -999 346 1.5 101170 33
2009-12-18 14:14 51°22.761 3°3.18 -999 11 1.5 101170 33
2009-12-18 14:15 51°22.676 3°2.963 -999 41 1.5 101180 33
2009-12-18 14:16 51°22.587 3°2.758 -999 35 1.5 101180 33
2009-12-18 14:17 51°22.492 3°2.55 -999 33 1.5 101170 33
2009-12-18 14:18 51°22.402 3°2.343 0.1 29 1.6 101150 33
2009-12-18 14:19 51°22.309 3°2.129 0.1 34 1.5 101170 33
2009-12-18 14:20 51°22.217 3°1.924 -999 268 1.5 101170 33
2009-12-18 14:21 51°22.123 3°1.712 0.1 34 1.6 101160 34
2009-12-18 14:22 51°22.032 3°1.494 0.1 34 1.5 101180 33
2009-12-18 14:23 51°21.945 3°1.286 1.8 38 1.6 101160 32
2009-12-18 14:24 51°21.85 3°1.071 1.3 38 1.6 101160 32
2009-12-18 14:25 51°21.758 3°0.864 0.4 35 1.5 101150 33
2009-12-18 14:26 51°21.666 3°0.647 0.1 38 1.5 101160 32
2009-12-18 14:27 51°21.58 3°0.438 -999 269 1.5 101160 33
2009-12-18 14:28 51°21.488 3°0.232 0.1 35 1.5 101150 33
2009-12-18 14:29 51°21.4 3°0.022 -999 266 1.4 101160 33
2009-12-18 14:30 51°21.309 2°59.814 0.1 260 1.4 101160 33
2009-12-18 14:31 51°21.223 2°59.599 0.1 254 1.5 101160 33
2009-12-18 14:32 51°21.134 2°59.393 4.1 258 1.5 101150 32
2009-12-18 14:33 51°21.046 2°59.181 1.8 31 1.6 101150 35
2009-12-18 14:34 51°20.96 2°58.974 1.5 31 1.4 101160 30
2009-12-18 14:35 51°20.872 2°58.758 -999 270 1.4 101130 32
2009-12-18 14:36 51°20.784 2°58.551 0.5 30 1.4 101140 32
2009-12-18 14:37 51°20.698 2°58.339 0.1 269 1.4 101150 32
2009-12-18 14:38 51°20.614 2°58.127 0.3 36 1.4 101140 34
2009-12-18 14:39 51°20.533 2°57.913 0.2 32 1.5 101140 33
2009-12-18 14:40 51°20.454 2°57.695 0.1 259 1.4 101130 34
2009-12-18 14:41 51°20.375 2°57.473 0.1 33 1.5 101140 34
2009-12-18 14:42 51°20.29 2°57.248 0.1 37 1.6 101140 34
2009-12-18 14:43 51°20.209 2°57.031 0.4 31 1.6 101140 33
2009-12-18 14:44 51°20.122 2°56.814 -999 34 1.6 101130 34
2009-12-18 14:45 51°20.036 2°56.596 0.1 31 1.6 101140 33
2009-12-18 14:46 51°19.947 2°56.383 0.1 33 1.6 101130 33
2009-12-18 14:47 51°19.86 2°56.165 0.1 33 1.6 101130 32
2009-12-18 14:48 51°19.766 2°55.955 -999 34 1.6 101130 32
2009-12-18 14:49 51°19.667 2°55.754 0.1 33 1.5 101130 33
2009-12-18 14:50 51°19.558 2°55.563 1.5 265 1.5 101130 34
2009-12-18 14:51 51°19.444 2°55.379 0.3 261 1.6 101130 35
2009-12-18 14:52 51°19.322 2°55.209 2.4 261 1.6 101120 32
2009-12-18 14:53 51°19.194 2°55.05 3.1 261 1.7 101120 32
2009-12-18 14:54 51°19.064 2°54.889 1.8 263 1.7 101130 32
2009-12-18 14:55 51°18.937 2°54.728 2 269 1.7 101130 33
2009-12-18 14:56 51°18.809 2°54.564 0.1 264 1.7 101120 31
2009-12-18 14:57 51°18.679 2°54.403 0.1 265 1.6 101140 34
2009-12-18 14:58 51°18.549 2°54.238 1.5 260 1.6 101130 32
2009-12-18 14:59 51°18.419 2°54.088 1.2 262 1.6 101130 32
2009-12-18 15:00 51°18.281 2°53.946 4.9 256 1.6 101130 32
2009-12-18 15:01 51°18.141 2°53.814 3.6 253 1.7 101140 32
2009-12-18 15:02 51°18 2°53.68 1.8 259 1.7 101150 34
2009-12-18 15:03 51°17.854 2°53.561 4.3 256 1.6 101140 31
2009-12-18 15:04 51°17.7 2°53.463 4.9 257 1.7 101150 32
2009-12-18 15:05 51°17.54 2°53.376 3 259 1.7 101150 34
2009-12-18 15:06 51°17.381 2°53.306 5.9 258 1.7 101160 33
2009-12-18 15:07 51°17.214 2°53.265 3.3 243 1.8 101150 34
2009-12-18 15:08 51°17.043 2°53.29 6.8 245 1.8 101140 32
2009-12-18 15:09 51°16.878 2°53.361 5.8 242 1.7 101150 34
2009-12-18 15:10 51°16.709 2°53.45 7.1 240 1.7 101130 34
2009-12-18 15:11 51°16.541 2°53.537 5.3 239 1.7 101120 32
2009-12-18 15:12 51°16.37 2°53.622 4.6 244 1.7 101120 32
2009-12-18 15:13 51°16.198 2°53.696 5.1 243 1.7 101130 34
2009-12-18 15:14 51°16.024 2°53.769 5 245 1.7 101130 32
2009-12-18 15:15 51°15.85 2°53.848 5.3 244 1.6 101130 33
2009-12-18 15:16 51°15.676 2°53.926 4 246 1.6 101130 32
2009-12-18 15:17 51°15.504 2°54 7 32 1.6 101130 32
2009-12-18 15:18 51°15.33 2°54.056 5.3 240 1.6 101130 34
2009-12-18 15:19 51°15.159 2°54.089 7.6 34 1.4 101130 31
2009-12-18 15:20 51°14.984 2°54.132 6.7 31 1.3 101130 34
2009-12-18 15:21 51°14.825 2°54.231 4.7 315 1.1 101140 33
2009-12-18 15:22 51°14.695 2°54.432 5.4 323 1 101140 33
2009-12-18 15:23 51°14.57 2°54.65 7.3 317 0.8 101130 32
2009-12-18 15:24 51°14.447 2°54.87 6.5 322 0.7 101140 34
2009-12-18 15:25 51°14.334 2°55.097 4.9 327 0.5 101130 33
2009-12-18 15:26 51°14.229 2°55.308 4.7 324 0.3 101150 34
2009-12-18 15:27 51°14.102 2°55.438 3 326 0.1 101150 34
2009-12-18 15:28 51°13.982 2°55.524 3.6 319 -999 101150 32
2009-12-18 15:29 51°13.855 2°55.607 2.9 325 -0.1 101150 33
2009-12-18 15:30 51°13.756 2°55.693 0.2 325 -0.1 101150 34
2009-12-18 15:31 51°13.707 2°55.794 0.1 326 -0.2 101150 34
2009-12-18 15:32 51°13.676 2°55.892 0.1 327 -0.3 101150 34
2009-12-18 15:33 51°13.664 2°55.949 -999 283 -0.3 101150 34
2009-12-18 15:35 51°13.664 2°55.95 -999 246 -0.3 101150 34
2009-12-18 15:36 51°13.662 2°55.961 -999 242 -0.2 101150 34
2009-12-18 15:37 51°13.662 2°55.959 -999 307 -0.2 101150 33